Location: Aressy
(43.2833°N, 0.3167°W)
Time: 18:04:56
(UTC+00:00)

Cosmos 1953 Rocket - Pass Details

Date: 28 January 2021
Orbit: 605 x 634 km, 82.5° (Epoch: 02 March)

Event Time Altitude Azimuth Distance (km) Brightness Sun altitude
Rises 18:07:54 0° 159° (SSE) 2,866 6.9 -11.1°
Reaches altitude 10° 18:10:21 10° 147° (SSE) 1,962 5.9 -11.5°
Maximum altitude 18:14:00 27° 89° (E) 1,177 4.4 -12.2°
Drops below altitude 10° 18:17:40 10° 32° (NNE) 1,965 5.7 -12.8°
Enters shadow 18:18:01 - 29° (NNE) 2,086 5.9 -12.9°
